Location: Newark
(30.0333°N, 31.2167°E)
Time: 18:02:05
(UTC+00:00)

Tiros 1 despin weight - Pass Details

Date: 29 January 2020
Orbit: 594 x 642 km, 48.2° (Epoch: 23 February)

Event Time Altitude Azimuth Distance (km) Brightness Sun altitude
Rises 05:41:28 0° 203° (SSW) 2,813 ? 9.8°
Reaches altitude 10° 05:43:57 10° 192° (SSW) 1,919 ? 10.3°
Maximum altitude 05:47:47 29° 131° (SE) 1,094 ? 11.0°
Drops below altitude 10° 05:51:39 10° 71° (ENE) 1,945 ? 11.8°
Sets 05:54:10 0° 60° (ENE) 2,859 ? 12.3°
